Weather History for KSBN - July, 2013

Change the Weather History Date:

Sunday, July 14, 2013

  Actual Average Record
Temperature  
Mean Temperature 78 °F 73 °F  
Max Temperature 89 °F 83 °F 108 °F (1936)
Min Temperature 67 °F 63 °F 48 °F (1930)
Degree Days  
Heating Degree Days 0 0  
Month to date heating degree days 3 0  
Since 1 June heating degree days 40 44  
Since 1 July heating degree days 3 0  
Cooling Degree Days 13 8  
Month to date cooling degree days 94 112  
Year to date cooling degree days 355 333  
Since 1 June cooling degree days 259 277  
Growing Degree Days 28 (Base 50)    
Moisture  
Dew Point 66 °F    
Average Humidity 64    
Maximum Humidity 87    
Minimum Humidity 43    
Precipitation  
Precipitation 0.00 in 0.13 in 3.16 in (1937)
Month to date precipitation 1.43 1.74  
Year to date precipitation 22.16 19.25  
Snow  
Snow 0.00 in - - ()
Month to date snowfall 0.0  
Since 1 June snowfall 0.0  
Snow Depth 0.00 in    
Sea Level Pressure  
Sea Level Pressure 30.20 in    
Wind  
Wind Speed 7 mph (ESE)    
Max Wind Speed 14 mph    
Max Gust Speed 20 mph    
Visibility 10 miles    
Events      
T = Trace of Precipitation, MM = Missing Value Source: NWS Daily Summary

Daily Weather History Graph

Daily Weather History Graph

Search for Another Location

Airport or City:

Trip Planner

Search our weather history database for the weather conditions in past years. The results will help you decide how hot, cold, wet, or windy it might be!

Date:

Astronomy

Jul. 14, 2013 Rise Set
Actual Time 6:23 AM EDT 9:18 PM EDT
Civil Twilight 5:50 AM EDT 9:51 PM EDT
Nautical Twilight 5:08 AM EDT 10:33 PM EDT
Astronomical Twilight 4:19 AM EDT 11:22 PM EDT
Moon 12:45 PM EDT (7/14) No Moon Set
Length of Visible Light 16h 01m
Length of Day
14h 55m
Waxing Crescent, 35% of the Moon is Illuminated
Jul 14
Waxing Crescent
Jul 15
First Quarter
Jul 22
Full
Jul 29
Last Quarter
Aug 6
New

Hourly Weather History & Observations

Time (EDT) Temp. Heat Index Dew Point Humidity Pressure Visibility Wind Dir Wind Speed Gust Speed Precip Events Conditions
12:54 AM 73.0 °F - 64.0 °F 73% 30.18 in 10.0 mi East 5.8 mph - N/A   Scattered Clouds
1:54 AM 73.0 °F - 64.0 °F 73% 30.18 in 10.0 mi East 8.1 mph - N/A   Clear
2:54 AM 72.0 °F - 63.0 °F 73% 30.17 in 10.0 mi East 6.9 mph - N/A   Clear
3:54 AM 71.1 °F - 64.0 °F 78% 30.17 in 10.0 mi ESE 8.1 mph - N/A   Clear
4:54 AM 69.1 °F - 63.0 °F 81% 30.19 in 10.0 mi East 4.6 mph - N/A   Clear
5:54 AM 68.0 °F - 64.0 °F 87% 30.20 in 10.0 mi ENE 4.6 mph - N/A   Clear
6:54 AM 68.0 °F - 64.0 °F 87% 30.21 in 10.0 mi ENE 3.5 mph - N/A   Clear
7:54 AM 71.1 °F - 64.9 °F 81% 30.22 in 10.0 mi East 8.1 mph - N/A   Clear
8:54 AM 73.9 °F - 66.0 °F 76% 30.22 in 10.0 mi ESE 4.6 mph - N/A   Clear
9:54 AM 78.1 °F - 66.0 °F 66% 30.22 in 10.0 mi SE 11.5 mph - N/A   Clear
10:54 AM 81.0 °F 83.3 °F 66.9 °F 62% 30.22 in 10.0 mi SSE 10.4 mph - N/A   Clear
11:54 AM 82.9 °F 85.4 °F 66.9 °F 58% 30.22 in 10.0 mi SE 10.4 mph - N/A   Partly Cloudy
12:54 PM 84.9 °F 87.6 °F 66.9 °F 55% 30.22 in 10.0 mi SE 9.2 mph - N/A   Mostly Cloudy
1:54 PM 84.9 °F 87.1 °F 66.0 °F 53% 30.22 in 10.0 mi ESE 6.9 mph - N/A   Mostly Cloudy
2:54 PM 88.0 °F 90.7 °F 66.9 °F 49% 30.21 in 10.0 mi ESE 11.5 mph 17.3 mph N/A   Clear
3:54 PM 89.1 °F 91.3 °F 66.0 °F 46% 30.20 in 10.0 mi ESE 9.2 mph - N/A   Partly Cloudy
4:54 PM 89.1 °F 91.3 °F 66.0 °F 46% 30.20 in 10.0 mi SE 10.4 mph - N/A   Partly Cloudy
5:54 PM 87.1 °F 87.8 °F 63.0 °F 44% 30.19 in 10.0 mi SSE 6.9 mph - N/A   Partly Cloudy
6:54 PM 86.0 °F 88.2 °F 66.0 °F 51% 30.19 in 10.0 mi SE 12.7 mph - N/A   Scattered Clouds
7:54 PM 86.0 °F 89.4 °F 68.0 °F 55% 30.19 in 10.0 mi East 4.6 mph - N/A   Clear
8:54 PM 84.0 °F 87.8 °F 69.1 °F 61% 30.20 in 10.0 mi ESE 9.2 mph - N/A   Clear
9:54 PM 82.0 °F 85.5 °F 69.1 °F 65% 30.21 in 10.0 mi ESE 5.8 mph - N/A   Clear
10:54 PM 80.1 °F 82.9 °F 69.1 °F 69% 30.22 in 10.0 mi Calm Calm - N/A   Clear
11:54 PM 79.0 °F - 69.1 °F 72% 30.23 in 10.0 mi Calm Calm - N/A   Clear